Location: Warner Observatory
(35.1353°N, 89.5455°W)
Time: 06:15:52
(UTC-06:00)

Envisat - Pass Details

Date: 24 January 2020
Orbit: 764 x 766 km, 98.1° (Epoch: 20 February)

Event Time Altitude Azimuth Distance (km) Brightness Sun altitude
Rises 18:42:39 0° 195° (SSW) 3,217 6.6 -17.3°
Reaches altitude 10° 18:45:16 10° 207° (SSW) 2,295 6.0 -17.8°
Maximum altitude 18:49:30 27° 264° (W) 1,443 5.2 -18.7°
Drops below altitude 10° 18:53:47 10° 322° (NW) 2,307 5.8 -19.5°
Sets 18:56:26 0° 334° (NNW) 3,237 6.5 -20.1°
